Time,TemperatureF,DewpointF,PressureIn,WindDirection,WindDirectionDegrees,WindSpeedMPH,WindSpeedGustMPH,Humidity,HourlyPrecipIn,Conditions,Clouds,dailyrainin,SoftwareType,DateUTC
2013-01-06 00:03:00,29.3,3.0,29.91,NW,310,3.5,3.5,32,0.00,RA,OVC,0.00,WeatherDisplay:10.37,2013-01-06 06:03:00,
2013-01-06 00:08:00,29.1,3.5,29.91,SW,236,8.1,8.1,33,0.00,RA,OVC,0.00,WeatherDisplay:10.37,2013-01-06 06:08:00,
2013-01-06 00:13:00,28.8,3.2,29.91,SW,233,5.8,5.8,33,0.00,FEW,OVC,0.00,WeatherDisplay:10.37,2013-01-06 06:13:00,
2013-01-06 00:18:00,28.8,3.2,29.91,West,274,6.9,6.9,33,0.00,FEW,OVC,0.00,WeatherDisplay:10.37,2013-01-06 06:18:00,
2013-01-06 00:23:00,28.6,3.1,29.91,SW,231,5.8,5.8,33,0.00,FEW,OVC,0.00,WeatherDisplay:10.37,2013-01-06 06:23:00,
2013-01-06 00:28:00,28.6,3.1,29.91,WSW,243,3.5,3.6,33,0.00,FEW,OVC,0.00,WeatherDisplay:10.37,2013-01-06 06:28:00,
2013-01-06 00:33:00,28.4,2.9,29.91,WSW,257,5.8,5.8,33,0.00,FEW,OVC,0.00,WeatherDisplay:10.37,2013-01-06 06:33:00,
2013-01-06 00:38:00,28.2,2.7,29.91,WSW,250,5.8,5.8,33,0.00,FEW,OVC,0.00,WeatherDisplay:10.37,2013-01-06 06:38:00,
2013-01-06 00:43:00,28.0,1.9,29.91,WSW,251,8.1,8.1,32,0.00,FEW,OVC,0.00,WeatherDisplay:10.37,2013-01-06 06:43:00,
2013-01-06 00:48:00,27.9,1.8,29.91,WSW,246,5.8,5.8,32,0.00,FEW,OVC,0.00,WeatherDisplay:10.37,2013-01-06 06:48:00,
2013-01-06 00:53:00,27.7,1.6,29.91,WSW,247,2.3,2.3,32,0.00,FEW,OVC,0.00,WeatherDisplay:10.37,2013-01-06 06:53:00,
2013-01-06 00:58:00,27.5,1.4,29.91,NW,305,3.5,0.0,32,0.00,FEW,OVC,0.00,WeatherDisplay:10.37,2013-01-06 06:58:00,
2013-01-06 01:03:00,27.5,2.1,29.91,West,276,2.3,0.0,33,0.00,FEW,OVC,0.00,WeatherDisplay:10.37,2013-01-06 07:03:00,
2013-01-06 01:08:00,27.3,2.0,29.91,WSW,245,8.1,8.1,33,0.00,FEW,OVC,0.00,WeatherDisplay:10.37,2013-01-06 07:08:00,
2013-01-06 01:13:00,27.1,1.8,29.91,WSW,241,5.8,5.8,33,0.00,FEW,OVC,0.00,WeatherDisplay:10.37,2013-01-06 07:13:00,
2013-01-06 01:18:00,27.0,1.6,29.91,WNW,289,3.5,3.5,33,0.00,SCT,OVC,0.00,WeatherDisplay:10.37,2013-01-06 07:18:00,
2013-01-06 01:23:00,27.0,1.6,29.91,WSW,257,3.5,3.6,33,0.00,SCT,OVC,0.00,WeatherDisplay:10.37,2013-01-06 07:23:00,
2013-01-06 01:28:00,26.8,1.5,29.91,WSW,256,3.5,3.5,33,0.00,SCT,OVC,0.00,WeatherDisplay:10.37,2013-01-06 07:28:00,
2013-01-06 01:33:00,26.6,2.0,29.91,West,268,4.0,4.0,34,0.00,SCT,OVC,0.00,WeatherDisplay:10.37,2013-01-06 07:33:00,
2013-01-06 01:38:00,26.4,1.8,29.91,West,271,2.3,0.0,34,0.00,SCT,OVC,0.00,WeatherDisplay:10.37,2013-01-06 07:38:00,
2013-01-06 01:43:00,26.2,1.6,29.91,WNW,291,3.5,3.5,34,0.00,SCT,OVC,0.00,WeatherDisplay:10.37,2013-01-06 07:43:00,
2013-01-06 01:48:00,26.1,0.8,29.91,WNW,294,3.5,3.5,33,0.00,SCT,OVC,0.00,WeatherDisplay:10.37,2013-01-06 07:48:00,
2013-01-06 01:53:00,25.7,-0.1,29.91,West,261,9.2,9.2,32,0.00,SCT,OVC,0.00,WeatherDisplay:10.37,2013-01-06 07:53:00,
2013-01-06 01:58:00,25.3,-0.5,29.91,WSW,237,3.5,3.5,32,0.00,SCT,OVC,0.00,WeatherDisplay:10.37,2013-01-06 07:58:00,
2013-01-06 02:03:00,25.2,-0.6,29.91,SW,226,8.1,8.1,32,0.00,SCT,OVC,0.00,WeatherDisplay:10.37,2013-01-06 08:03:00,
2013-01-06 02:08:00,24.8,-0.9,29.91,WNW,292,5.8,5.8,32,0.00,SCT,OVC,0.00,WeatherDisplay:10.37,2013-01-06 08:08:00,
2013-01-06 02:13:00,24.6,-1.1,29.94,West,264,4.6,4.6,32,0.00,SCT,OVC,0.00,WeatherDisplay:10.37,2013-01-06 08:13:00,
2013-01-06 02:18:00,24.4,-1.3,29.94,WSW,237,4.6,4.6,32,0.00,SCT,OVC,0.00,WeatherDisplay:10.37,2013-01-06 08:18:00,
2013-01-06 02:23:00,24.3,-1.4,29.94,West,273,5.8,5.8,32,0.00,SCT,OVC,0.00,WeatherDisplay:10.37,2013-01-06 08:23:00,
2013-01-06 02:28:00,23.9,-1.7,29.94,West,270,4.6,4.6,32,0.00,SCT,OVC,0.00,WeatherDisplay:10.37,2013-01-06 08:28:00,
2013-01-06 02:34:00,23.7,-1.9,29.94,NW,311,3.5,3.5,32,0.00,SCT,OVC,0.00,WeatherDisplay:10.37,2013-01-06 08:34:00,
2013-01-06 02:38:00,23.5,-2.1,29.94,West,263,5.8,5.8,32,0.00,SCT,OVC,0.00,WeatherDisplay:10.37,2013-01-06 08:38:00,
2013-01-06 02:43:00,23.4,-2.2,29.94,WNW,284,5.8,5.8,32,0.00,SCT,OVC,0.00,WeatherDisplay:10.37,2013-01-06 08:43:00,
2013-01-06 02:49:00,23.4,-1.6,29.94,WNW,291,3.5,3.5,33,0.00,SCT,OVC,0.00,WeatherDisplay:10.37,2013-01-06 08:49:00,
2013-01-06 02:53:00,23.2,-1.7,29.94,West,273,2.3,0.0,33,0.00,SCT,OVC,0.00,WeatherDisplay:10.37,2013-01-06 08:53:00,
2013-01-06 02:59:00,23.0,-1.9,29.94,West,271,3.5,3.5,33,0.00,SCT,OVC,0.00,WeatherDisplay:10.37,2013-01-06 08:59:00,
2013-01-06 03:04:00,23.0,-1.9,29.94,SW,217,5.8,5.8,33,0.00,SCT,OVC,0.00,WeatherDisplay:10.37,2013-01-06 09:04:00,
2013-01-06 03:09:00,23.0,-1.2,29.94,WNW,286,5.8,5.8,34,0.00,SCT,OVC,0.00,WeatherDisplay:10.37,2013-01-06 09:09:00,
2013-01-06 03:14:00,22.8,-1.4,29.94,West,263,5.8,5.8,34,0.00,SCT,OVC,0.00,WeatherDisplay:10.37,2013-01-06 09:14:00,
2013-01-06 03:19:00,22.8,-1.4,29.94,West,271,5.8,5.8,34,0.00,SCT,OVC,0.00,WeatherDisplay:10.37,2013-01-06 09:19:00,
2013-01-06 03:24:00,22.6,-1.6,29.94,SW,226,5.8,5.8,34,0.00,SCT,OVC,0.00,WeatherDisplay:10.37,2013-01-06 09:24:00,
2013-01-06 03:29:00,22.5,-1.1,29.94,West,276,8.1,8.1,35,0.00,SCT,OVC,0.00,WeatherDisplay:10.37,2013-01-06 09:29:00,
2013-01-06 03:34:00,22.5,-1.1,29.94,NW,306,11.5,11.5,35,0.00,BKN,OVC,0.00,WeatherDisplay:10.37,2013-01-06 09:34:00,
2013-01-06 03:39:00,22.5,-1.1,29.94,WSW,243,5.8,5.8,35,0.00,BKN,OVC,0.00,WeatherDisplay:10.37,2013-01-06 09:39:00,
2013-01-06 03:44:00,22.3,-1.3,29.94,West,279,5.8,5.8,35,0.00,BKN,OVC,0.00,WeatherDisplay:10.37,2013-01-06 09:44:00,
2013-01-06 03:49:00,22.5,-1.1,29.94,West,274,5.8,5.8,35,0.00,BKN,OVC,0.00,WeatherDisplay:10.37,2013-01-06 09:49:00,
2013-01-06 03:54:00,22.5,-0.5,29.94,West,263,5.8,5.8,36,0.00,BKN,OVC,0.00,WeatherDisplay:10.37,2013-01-06 09:54:00,
2013-01-06 03:59:00,22.5,-0.5,29.94,North,6,5.8,5.8,36,0.00,BKN,OVC,0.00,WeatherDisplay:10.37,2013-01-06 09:59:00,
2013-01-06 04:04:00,22.5,-1.1,29.94,WNW,297,5.8,5.8,35,0.00,OVC,,0.00,WeatherDisplay:10.37,2013-01-06 10:04:00,
2013-01-06 04:09:00,22.6,-1.0,29.94,WSW,243,3.5,3.6,35,0.00,OVC,,0.00,WeatherDisplay:10.37,2013-01-06 10:09:00,
2013-01-06 04:14:00,22.6,-1.0,29.94,NW,319,5.8,5.8,35,0.00,OVC,,0.00,WeatherDisplay:10.37,2013-01-06 10:14:00,
2013-01-06 04:19:00,22.6,-1.0,29.94,West,265,3.5,3.5,35,0.00,OVC,,0.00,WeatherDisplay:10.37,2013-01-06 10:19:00,
2013-01-06 04:24:00,22.8,-0.8,29.94,NNE,33,3.5,3.5,35,0.00,OVC,,0.00,WeatherDisplay:10.37,2013-01-06 10:24:00,
2013-01-06 04:29:00,22.6,-1.0,29.94,WSW,248,3.5,3.6,35,0.00,OVC,,0.00,WeatherDisplay:10.37,2013-01-06 10:29:00,
2013-01-06 04:34:00,22.6,-1.6,29.94,SW,220,3.5,3.5,34,0.00,OVC,,0.00,WeatherDisplay:10.37,2013-01-06 10:34:00,
2013-01-06 04:39:00,22.3,-1.9,29.94,South,170,8.1,8.1,34,0.00,OVC,,0.00,WeatherDisplay:10.37,2013-01-06 10:39:00,
2013-01-06 04:44:00,21.9,-2.8,29.97,West,265,10.4,10.4,33,0.00,OVC,,0.00,WeatherDisplay:10.37,2013-01-06 10:44:00,
2013-01-06 04:49:00,21.7,-3.0,29.97,NW,317,6.9,6.9,33,0.00,OVC,,0.00,WeatherDisplay:10.37,2013-01-06 10:49:00,
2013-01-06 04:54:00,21.4,-3.3,29.97,NW,306,8.1,8.1,33,0.00,OVC,,0.00,WeatherDisplay:10.37,2013-01-06 10:54:00,
2013-01-06 04:59:00,21.2,-2.9,29.97,West,281,8.1,8.1,34,0.00,OVC,,0.00,WeatherDisplay:10.37,2013-01-06 10:59:00,
2013-01-06 05:04:00,20.8,-3.2,29.97,WNW,284,8.1,8.1,34,0.00,OVC,,0.00,WeatherDisplay:10.37,2013-01-06 11:04:00,
2013-01-06 05:09:00,20.3,-4.3,29.97,West,271,5.8,5.8,33,0.00,OVC,,0.00,WeatherDisplay:10.37,2013-01-06 11:09:00,
2013-01-06 05:14:00,19.8,-5.4,29.97,West,277,8.1,8.1,32,0.00,OVC,,0.00,WeatherDisplay:10.37,2013-01-06 11:14:00,
2013-01-06 05:19:00,19.4,-5.1,29.97,NW,308,5.8,5.8,33,0.00,OVC,,0.00,WeatherDisplay:10.37,2013-01-06 11:19:00,
2013-01-06 05:24:00,19.0,-5.4,29.97,WSW,246,8.1,8.1,33,0.00,OVC,,0.00,WeatherDisplay:10.37,2013-01-06 11:24:00,
2013-01-06 05:29:00,18.7,-5.7,30.00,West,277,9.2,9.2,33,0.00,OVC,,0.00,WeatherDisplay:10.37,2013-01-06 11:29:00,
2013-01-06 05:34:00,18.5,-5.9,30.00,WSW,243,5.8,5.8,33,0.00,OVC,,0.00,WeatherDisplay:10.37,2013-01-06 11:34:00,
2013-01-06 05:39:00,18.3,-6.0,30.00,West,274,3.5,0.0,33,0.00,OVC,,0.00,WeatherDisplay:10.37,2013-01-06 11:39:00,
2013-01-06 05:44:00,18.1,-5.6,30.00,West,278,5.8,5.8,34,0.00,OVC,,0.00,WeatherDisplay:10.37,2013-01-06 11:44:00,
2013-01-06 05:49:00,18.1,-5.6,30.00,NNW,343,5.8,5.8,34,0.00,OVC,,0.00,WeatherDisplay:10.37,2013-01-06 11:49:00,
2013-01-06 05:54:00,18.1,-5.6,30.00,WNW,284,3.5,3.5,34,0.00,OVC,,0.00,WeatherDisplay:10.37,2013-01-06 11:54:00,
2013-01-06 05:59:00,18.0,-5.7,30.00,WNW,303,5.8,5.8,34,0.00,OVC,,0.00,WeatherDisplay:10.37,2013-01-06 11:59:00,
2013-01-06 06:04:00,17.8,-5.9,30.00,West,269,3.5,4.5,34,0.00,BKN,OVC,0.00,WeatherDisplay:10.37,2013-01-06 12:04:00,
2013-01-06 06:09:00,17.6,-5.5,30.00,WSW,237,5.8,5.8,35,0.00,BKN,OVC,0.00,WeatherDisplay:10.37,2013-01-06 12:09:00,
2013-01-06 06:14:00,17.6,-5.5,30.03,SW,231,8.1,8.1,35,0.00,BKN,OVC,0.00,WeatherDisplay:10.37,2013-01-06 12:14:00,
2013-01-06 06:19:00,17.4,-5.6,30.03,SSW,212,8.1,8.1,35,0.00,BKN,OVC,0.00,WeatherDisplay:10.37,2013-01-06 12:19:00,
2013-01-06 06:24:00,17.4,-5.6,30.03,West,268,5.8,5.8,35,0.00,BKN,OVC,0.00,WeatherDisplay:10.37,2013-01-06 12:24:00,
2013-01-06 06:29:00,17.2,-5.8,30.03,SW,232,4.6,4.6,35,0.00,BKN,OVC,0.00,WeatherDisplay:10.37,2013-01-06 12:29:00,
2013-01-06 06:34:00,17.1,-5.9,30.03,West,274,4.6,4.6,35,0.00,BKN,OVC,0.00,WeatherDisplay:10.37,2013-01-06 12:34:00,
2013-01-06 06:39:00,16.9,-6.1,30.03,WNW,291,4.6,4.6,35,0.00,BKN,OVC,0.00,WeatherDisplay:10.37,2013-01-06 12:39:00,
2013-01-06 06:44:00,16.7,-6.3,30.03,West,277,3.5,3.6,35,0.00,BKN,OVC,0.00,WeatherDisplay:10.37,2013-01-06 12:44:00,
2013-01-06 06:49:00,16.5,-6.4,30.03,SW,231,9.2,9.2,35,0.00,BKN,OVC,0.00,WeatherDisplay:10.37,2013-01-06 12:49:00,
2013-01-06 06:54:00,16.5,-6.4,30.03,NNE,27,9.2,9.2,35,0.00,BKN,OVC,0.00,WeatherDisplay:10.37,2013-01-06 12:54:00,
2013-01-06 06:59:00,16.3,-6.6,30.03,West,261,5.4,5.4,35,0.00,BKN,OVC,0.00,WeatherDisplay:10.37,2013-01-06 12:59:00,
2013-01-06 07:04:00,16.2,-6.7,30.03,North,353,5.8,5.8,35,0.00,BKN,OVC,0.00,WeatherDisplay:10.37,2013-01-06 13:04:00,
2013-01-06 07:09:00,16.2,-6.7,30.03,West,270,5.8,5.8,35,0.00,BKN,OVC,0.00,WeatherDisplay:10.37,2013-01-06 13:09:00,
2013-01-06 07:14:00,16.0,-6.9,30.03,WSW,250,5.8,5.8,35,0.00,BKN,OVC,0.00,WeatherDisplay:10.37,2013-01-06 13:14:00,
2013-01-06 07:19:00,16.0,-6.9,30.03,WNW,300,5.8,5.8,35,0.00,CLR,OVC,0.00,WeatherDisplay:10.37,2013-01-06 13:19:00,
2013-01-06 07:24:00,16.0,-6.9,30.03,West,268,9.2,9.2,35,0.00,CLR,OVC,0.00,WeatherDisplay:10.37,2013-01-06 13:24:00,
2013-01-06 07:29:00,16.0,-6.9,30.06,West,270,5.8,5.8,35,0.00,CLR,OVC,0.00,WeatherDisplay:10.37,2013-01-06 13:29:00,
2013-01-06 07:34:00,16.0,-6.9,30.06,North,6,8.1,8.1,35,0.00,CLR,OVC,0.00,WeatherDisplay:10.37,2013-01-06 13:34:00,
2013-01-06 07:39:00,15.8,-6.5,30.06,West,262,5.8,5.8,36,0.00,CLR,OVC,0.00,WeatherDisplay:10.37,2013-01-06 13:39:00,
2013-01-06 07:44:00,15.8,-6.5,30.06,WNW,287,8.1,8.1,36,0.00,CLR,OVC,0.00,WeatherDisplay:10.37,2013-01-06 13:44:00,
2013-01-06 07:49:00,16.0,-6.3,30.06,WSW,256,3.5,4.0,36,0.00,CLR,OVC,0.00,WeatherDisplay:10.37,2013-01-06 13:49:00,
2013-01-06 07:54:00,16.0,-6.3,30.06,WNW,292,3.5,3.5,36,0.00,CLR,OVC,0.00,WeatherDisplay:10.37,2013-01-06 13:54:00,
2013-01-06 07:59:00,16.2,-6.2,30.06,NW,321,3.6,3.6,36,0.00,CLR,OVC,0.00,WeatherDisplay:10.37,2013-01-06 13:59:00,
2013-01-06 08:04:00,16.5,-5.8,30.06,West,272,5.8,5.8,36,0.00,CLR,OVC,0.00,WeatherDisplay:10.37,2013-01-06 14:04:00,
2013-01-06 08:09:00,16.5,-5.8,30.06,SW,235,5.8,5.8,36,0.00,CLR,OVC,0.00,WeatherDisplay:10.37,2013-01-06 14:09:00,
2013-01-06 08:14:00,16.7,-5.7,30.09,West,273,5.8,5.8,36,0.00,CLR,OVC,0.00,WeatherDisplay:10.37,2013-01-06 14:14:00,
2013-01-06 08:19:00,16.9,-5.5,30.09,SW,227,3.5,4.0,36,0.00,BKN,OVC,0.00,WeatherDisplay:10.37,2013-01-06 14:19:00,
2013-01-06 08:24:00,17.1,-5.4,30.09,West,276,4.6,4.6,36,0.00,BKN,OVC,0.00,WeatherDisplay:10.37,2013-01-06 14:24:00,
2013-01-06 08:29:00,17.2,-5.2,30.09,WNW,290,8.1,8.1,36,0.00,BKN,OVC,0.00,WeatherDisplay:10.37,2013-01-06 14:29:00,
2013-01-06 08:34:00,17.4,-5.0,30.09,SW,219,5.8,5.8,36,0.00,BKN,OVC,0.00,WeatherDisplay:10.37,2013-01-06 14:34:00,
2013-01-06 08:39:00,17.6,-4.9,30.09,West,267,5.8,5.8,36,0.00,BKN,OVC,0.00,WeatherDisplay:10.37,2013-01-06 14:39:00,
2013-01-06 08:44:00,17.6,-4.9,30.09,West,274,5.8,5.8,36,0.00,BKN,OVC,0.00,WeatherDisplay:10.37,2013-01-06 14:44:00,
2013-01-06 08:49:00,17.8,-5.3,30.09,West,259,3.5,3.6,35,0.00,BKN,OVC,0.00,WeatherDisplay:10.37,2013-01-06 14:49:00,
2013-01-06 08:54:00,18.0,-4.5,30.09,West,278,3.5,3.5,36,0.00,BKN,OVC,0.00,WeatherDisplay:10.37,2013-01-06 14:54:00,
2013-01-06 08:59:00,18.3,-4.2,30.12,West,259,5.8,5.8,36,0.00,BKN,OVC,0.00,WeatherDisplay:10.37,2013-01-06 14:59:00,
2013-01-06 09:04:00,18.3,-4.8,30.12,West,266,5.8,5.8,35,0.00,OVC,,0.00,WeatherDisplay:10.37,2013-01-06 15:04:00,
2013-01-06 09:09:00,18.5,-4.7,30.12,West,268,4.6,4.6,35,0.00,OVC,,0.00,WeatherDisplay:10.37,2013-01-06 15:09:00,
2013-01-06 09:14:00,18.7,-4.5,30.09,West,278,3.5,0.0,35,0.00,OVC,,0.00,WeatherDisplay:10.37,2013-01-06 15:14:00,
2013-01-06 09:19:00,19.0,-4.2,30.09,West,278,3.5,3.5,35,0.00,OVC,,0.00,WeatherDisplay:10.37,2013-01-06 15:19:00,
2013-01-06 09:24:00,19.4,-3.8,30.09,WSW,247,3.1,0.0,35,0.00,OVC,,0.00,WeatherDisplay:10.37,2013-01-06 15:24:00,
2013-01-06 09:29:00,19.9,-3.4,30.12,West,268,3.5,5.4,35,0.00,OVC,,0.00,WeatherDisplay:10.37,2013-01-06 15:29:00,
2013-01-06 09:34:00,20.1,-3.2,30.12,WNW,295,8.1,8.1,35,0.00,OVC,,0.00,WeatherDisplay:10.37,2013-01-06 15:34:00,
2013-01-06 09:39:00,19.9,-4.0,30.12,West,267,5.8,5.8,34,0.00,OVC,,0.00,WeatherDisplay:10.37,2013-01-06 15:39:00,
2013-01-06 09:44:00,20.1,-3.8,30.12,West,275,5.8,5.8,34,0.00,OVC,,0.00,WeatherDisplay:10.37,2013-01-06 15:44:00,
2013-01-06 09:49:00,20.1,-3.8,30.12,WNW,300,3.5,4.0,34,0.00,OVC,,0.00,WeatherDisplay:10.37,2013-01-06 15:49:00,
2013-01-06 09:54:00,20.5,-3.5,30.12,WSW,257,5.8,5.8,34,0.00,OVC,,0.00,WeatherDisplay:10.37,2013-01-06 15:54:00,
2013-01-06 09:59:00,20.7,-3.3,30.12,WSW,257,5.8,5.8,34,0.00,OVC,,0.00,WeatherDisplay:10.37,2013-01-06 15:59:00,
2013-01-06 10:04:00,20.8,-3.8,30.12,West,265,3.5,4.5,33,0.00,OVC,,0.00,WeatherDisplay:10.37,2013-01-06 16:04:00,
2013-01-06 10:09:00,21.0,-3.6,30.12,West,278,8.1,8.1,33,0.00,OVC,,0.00,WeatherDisplay:10.37,2013-01-06 16:09:00,
2013-01-06 10:14:00,21.2,-3.5,30.15,West,276,5.8,5.8,33,0.00,OVC,,0.00,WeatherDisplay:10.37,2013-01-06 16:14:00,
2013-01-06 10:19:00,21.0,-3.6,30.15,West,268,5.8,5.8,33,0.00,OVC,,0.00,WeatherDisplay:10.37,2013-01-06 16:19:00,
2013-01-06 10:24:00,21.2,-3.5,30.15,NNW,327,3.5,3.5,33,0.00,OVC,,0.00,WeatherDisplay:10.37,2013-01-06 16:24:00,
2013-01-06 10:29:00,21.4,-3.3,30.15,WSW,246,3.5,3.5,33,0.00,OVC,,0.00,WeatherDisplay:10.37,2013-01-06 16:29:00,
2013-01-06 10:34:00,21.4,-3.3,30.15,West,277,4.6,4.6,33,0.00,BKN,OVC,0.00,WeatherDisplay:10.37,2013-01-06 16:34:00,
2013-01-06 10:39:00,21.4,-4.0,30.15,WSW,257,3.5,3.5,32,0.00,BKN,OVC,0.00,WeatherDisplay:10.37,2013-01-06 16:39:00,
2013-01-06 10:44:00,21.6,-3.2,30.15,NW,315,3.5,0.0,33,0.00,BKN,OVC,0.00,WeatherDisplay:10.37,2013-01-06 16:44:00,
2013-01-06 10:49:00,21.7,-3.0,30.15,West,271,3.5,4.0,33,0.00,BKN,OVC,0.00,WeatherDisplay:10.37,2013-01-06 16:49:00,
2013-01-06 10:54:00,21.9,-2.8,30.15,West,271,3.5,3.6,33,0.00,BKN,OVC,0.00,WeatherDisplay:10.37,2013-01-06 16:54:00,
2013-01-06 10:59:00,21.9,-2.8,30.15,West,265,4.6,4.6,33,0.00,BKN,OVC,0.00,WeatherDisplay:10.37,2013-01-06 16:59:00,
2013-01-06 11:04:00,21.9,-2.8,30.15,SW,219,3.5,4.5,33,0.00,SCT,OVC,0.00,WeatherDisplay:10.37,2013-01-06 17:04:00,
2013-01-06 11:09:00,21.9,-2.8,30.15,WSW,249,5.8,5.8,33,0.00,SCT,OVC,0.00,WeatherDisplay:10.37,2013-01-06 17:09:00,
2013-01-06 11:14:00,21.9,-2.8,30.15,West,273,5.8,5.8,33,0.00,SCT,OVC,0.00,WeatherDisplay:10.37,2013-01-06 17:14:00,
2013-01-06 11:19:00,21.9,-2.2,30.15,West,276,5.8,5.8,34,0.00,BKN,OVC,0.00,WeatherDisplay:10.37,2013-01-06 17:19:00,
2013-01-06 11:24:00,22.3,-1.9,30.15,West,267,3.5,4.5,34,0.00,BKN,OVC,0.00,WeatherDisplay:10.37,2013-01-06 17:24:00,
2013-01-06 11:29:00,22.1,-2.0,30.15,WSW,244,3.5,4.5,34,0.00,BKN,OVC,0.00,WeatherDisplay:10.37,2013-01-06 17:29:00,
2013-01-06 11:34:00,22.1,-2.0,30.15,NNW,338,3.5,3.5,34,0.00,BKN,OVC,0.00,WeatherDisplay:10.37,2013-01-06 17:34:00,
2013-01-06 11:39:00,21.9,-2.2,30.15,West,279,5.8,5.8,34,0.00,BKN,OVC,0.00,WeatherDisplay:10.37,2013-01-06 17:39:00,
2013-01-06 11:44:00,22.1,-1.4,30.15,West,278,4.6,4.6,35,0.00,BKN,OVC,0.00,WeatherDisplay:10.37,2013-01-06 17:44:00,
2013-01-06 11:49:00,22.3,-0.7,30.15,West,270,3.5,3.5,36,0.00,BKN,OVC,0.00,WeatherDisplay:10.37,2013-01-06 17:49:00,
2013-01-06 11:54:00,22.3,-0.7,30.15,West,272,3.5,3.5,36,0.00,BKN,OVC,0.00,WeatherDisplay:10.37,2013-01-06 17:54:00,
2013-01-06 11:59:00,22.5,0.1,30.15,WNW,293,3.5,3.5,37,0.00,BKN,OVC,0.00,WeatherDisplay:10.37,2013-01-06 17:59:00,
2013-01-06 12:04:00,22.6,0.2,30.15,WSW,257,5.8,5.8,37,0.00,BKN,OVC,0.00,WeatherDisplay:10.37,2013-01-06 18:04:00,
2013-01-06 12:09:00,22.8,0.4,30.15,West,260,8.1,8.1,37,0.00,BKN,OVC,0.00,WeatherDisplay:10.37,2013-01-06 18:09:00,
2013-01-06 12:14:00,22.6,0.2,30.15,West,272,9.2,9.2,37,0.00,BKN,OVC,0.00,WeatherDisplay:10.37,2013-01-06 18:14:00,
2013-01-06 12:19:00,22.8,1.0,30.15,NW,320,5.8,5.8,38,0.00,OVC,,0.00,WeatherDisplay:10.37,2013-01-06 18:19:00,
2013-01-06 12:24:00,22.8,1.0,30.15,West,262,3.5,3.6,38,0.00,OVC,,0.00,WeatherDisplay:10.37,2013-01-06 18:24:00,
2013-01-06 12:29:00,22.8,1.0,30.15,WNW,284,4.6,0.0,38,0.00,OVC,,0.00,WeatherDisplay:10.37,2013-01-06 18:29:00,
2013-01-06 12:34:00,23.0,1.1,30.15,NNW,334,4.6,4.6,38,0.00,OVC,,0.00,WeatherDisplay:10.37,2013-01-06 18:34:00,
2013-01-06 12:39:00,23.2,0.7,30.15,WNW,286,5.8,5.8,37,0.00,OVC,,0.00,WeatherDisplay:10.37,2013-01-06 18:39:00,
2013-01-06 12:44:00,23.4,0.9,30.15,West,276,5.8,5.8,37,0.00,OVC,,0.00,WeatherDisplay:10.37,2013-01-06 18:44:00,
2013-01-06 12:49:00,23.5,1.0,30.15,WNW,284,8.1,8.1,37,0.00,OVC,,0.00,WeatherDisplay:10.37,2013-01-06 18:49:00,
2013-01-06 12:54:00,23.9,0.8,30.15,WNW,294,2.3,0.0,36,0.00,OVC,,0.00,WeatherDisplay:10.37,2013-01-06 18:54:00,
2013-01-06 12:59:00,24.1,-0.3,30.15,West,267,8.1,8.1,34,0.00,OVC,,0.00,WeatherDisplay:10.37,2013-01-06 18:59:00,
2013-01-06 13:04:00,24.4,0.0,30.15,West,278,3.5,3.5,34,0.00,BKN,OVC,0.00,WeatherDisplay:10.37,2013-01-06 19:04:00,
2013-01-06 13:09:00,24.6,-0.4,30.15,West,261,4.6,4.6,33,0.00,BKN,OVC,0.00,WeatherDisplay:10.37,2013-01-06 19:09:00,
2013-01-06 13:14:00,25.0,-0.8,30.15,West,272,3.5,3.5,32,0.00,BKN,OVC,0.00,WeatherDisplay:10.37,2013-01-06 19:14:00,
2013-01-06 13:19:00,25.3,-2.5,30.15,WNW,293,3.5,0.0,29,0.00,SCT,OVC,0.00,WeatherDisplay:10.37,2013-01-06 19:19:00,
2013-01-06 13:24:00,25.3,-2.5,30.15,SW,234,4.6,4.6,29,0.00,SCT,OVC,0.00,WeatherDisplay:10.37,2013-01-06 19:24:00,
2013-01-06 13:29:00,25.3,-4.8,30.15,NW,325,5.8,5.8,26,0.00,SCT,OVC,0.00,WeatherDisplay:10.37,2013-01-06 19:29:00,
2013-01-06 13:35:00,25.3,-6.5,30.15,West,260,3.5,3.5,24,0.00,SCT,OVC,0.00,WeatherDisplay:10.37,2013-01-06 19:35:00,
2013-01-06 13:40:00,25.3,-4.8,30.15,West,276,5.8,5.8,26,0.00,SCT,OVC,0.00,WeatherDisplay:10.37,2013-01-06 19:40:00,
2013-01-06 13:45:00,25.5,-6.3,30.18,WSW,242,3.5,3.5,24,0.00,SCT,OVC,0.00,WeatherDisplay:10.37,2013-01-06 19:45:00,
2013-01-06 13:50:00,25.7,-6.2,30.18,SSW,211,3.5,3.6,24,0.00,SCT,OVC,0.00,WeatherDisplay:10.37,2013-01-06 19:50:00,
2013-01-06 13:56:00,25.7,-8.9,30.18,NW,311,3.5,3.5,21,0.00,SCT,OVC,0.00,WeatherDisplay:10.37,2013-01-06 19:56:00,
2013-01-06 14:01:00,25.7,-8.9,30.18,West,262,5.8,5.8,21,0.00,SCT,OVC,0.00,WeatherDisplay:10.37,2013-01-06 20:01:00,
2013-01-06 14:06:00,25.7,-8.9,30.18,West,271,4.6,5.4,21,0.00,CLR,OVC,0.00,WeatherDisplay:10.37,2013-01-06 20:06:00,
2013-01-06 14:11:00,25.7,-8.9,30.18,WSW,246,4.6,4.6,21,0.00,CLR,OVC,0.00,WeatherDisplay:10.37,2013-01-06 20:11:00,
2013-01-06 14:14:00,25.7,-8.9,30.18,WSW,245,5.8,5.8,21,0.00,CLR,OVC,0.00,WeatherDisplay:10.37,2013-01-06 20:14:00,
2013-01-06 14:19:00,25.9,-8.8,30.18,WSW,255,3.5,0.0,21,0.00,CLR,OVC,0.00,WeatherDisplay:10.37,2013-01-06 20:19:00,
2013-01-06 14:24:00,26.1,-10.7,30.18,West,276,4.6,4.6,19,0.00,CLR,OVC,0.00,WeatherDisplay:10.37,2013-01-06 20:24:00,
2013-01-06 14:29:00,26.1,-8.6,30.18,West,279,3.5,3.5,21,0.00,CLR,OVC,0.00,WeatherDisplay:10.37,2013-01-06 20:29:00,
2013-01-06 14:34:00,26.2,-10.5,30.18,NW,308,5.8,5.8,19,0.00,CLR,OVC,0.00,WeatherDisplay:10.37,2013-01-06 20:34:00,
2013-01-06 14:39:00,26.4,-10.4,30.18,West,275,0.0,0.0,19,0.00,CLR,OVC,0.00,WeatherDisplay:10.37,2013-01-06 20:39:00,
2013-01-06 14:44:00,26.6,-10.2,30.18,West,260,0.0,0.0,19,0.00,CLR,OVC,0.00,WeatherDisplay:10.37,2013-01-06 20:44:00,
2013-01-06 14:49:00,26.8,-11.2,30.18,WSW,252,5.8,5.8,18,0.00,CLR,OVC,0.00,WeatherDisplay:10.37,2013-01-06 20:49:00,
2013-01-06 14:54:00,26.8,-11.2,30.18,WSW,244,4.6,4.6,18,0.00,CLR,OVC,0.00,WeatherDisplay:10.37,2013-01-06 20:54:00,
2013-01-06 14:59:00,26.6,-10.2,30.18,West,280,5.8,5.8,19,0.00,CLR,OVC,0.00,WeatherDisplay:10.37,2013-01-06 20:59:00,
2013-01-06 15:04:00,26.6,-10.2,30.18,WSW,252,3.5,3.5,19,0.00,CLR,OVC,0.00,WeatherDisplay:10.37,2013-01-06 21:04:00,
2013-01-06 15:05:00,26.6,-10.2,30.18,WSW,243,3.5,3.5,19,0.00,CLR,OVC,0.00,WeatherDisplay:10.37,2013-01-06 21:05:00,
2013-01-06 15:10:00,26.6,-10.2,30.18,West,271,4.6,4.6,19,0.00,CLR,OVC,0.00,WeatherDisplay:10.37,2013-01-06 21:10:00,
2013-01-06 15:15:00,26.6,-10.2,30.18,SW,225,4.0,0.0,19,0.00,CLR,OVC,0.00,WeatherDisplay:10.37,2013-01-06 21:15:00,
2013-01-06 15:20:00,26.4,-10.4,30.18,West,274,0.0,0.0,19,0.00,CLR,OVC,0.00,WeatherDisplay:10.37,2013-01-06 21:20:00,
2013-01-06 15:25:00,26.4,-10.4,30.18,West,268,5.8,5.8,19,0.00,CLR,OVC,0.00,WeatherDisplay:10.37,2013-01-06 21:25:00,
2013-01-06 15:30:00,26.4,-10.4,30.21,West,274,3.5,3.5,19,0.00,CLR,OVC,0.00,WeatherDisplay:10.37,2013-01-06 21:30:00,
2013-01-06 15:35:00,26.2,-10.5,30.21,WNW,302,4.9,4.9,19,0.00,CLR,OVC,0.00,WeatherDisplay:10.37,2013-01-06 21:35:00,
2013-01-06 15:40:00,26.1,-10.7,30.21,West,266,4.6,4.6,19,0.00,CLR,OVC,0.00,WeatherDisplay:10.37,2013-01-06 21:40:00,
2013-01-06 15:45:00,26.1,-10.7,30.21,WNW,284,3.5,3.5,19,0.00,CLR,OVC,0.00,WeatherDisplay:10.37,2013-01-06 21:45:00,
2013-01-06 15:50:00,26.1,-10.7,30.21,West,281,3.5,3.5,19,0.00,CLR,OVC,0.00,WeatherDisplay:10.37,2013-01-06 21:50:00,
2013-01-06 15:55:00,25.9,-10.8,30.21,West,259,0.0,0.0,19,0.00,CLR,OVC,0.00,WeatherDisplay:10.37,2013-01-06 21:55:00,
2013-01-06 16:00:00,25.7,-11.0,30.21,SW,232,3.5,3.5,19,0.00,CLR,OVC,0.00,WeatherDisplay:10.37,2013-01-06 22:00:00,
2013-01-06 16:05:00,25.7,-14.4,30.21,West,280,2.3,2.3,16,0.00,CLR,OVC,0.00,WeatherDisplay:10.37,2013-01-06 22:05:00,
2013-01-06 16:10:00,25.5,-14.6,30.21,West,272,3.5,0.0,16,0.00,CLR,OVC,0.00,WeatherDisplay:10.37,2013-01-06 22:10:00,
2013-01-06 16:15:00,25.5,-14.6,30.21,West,278,0.0,0.0,16,0.00,CLR,OVC,0.00,WeatherDisplay:10.37,2013-01-06 22:15:00,
2013-01-06 16:20:00,25.3,-14.7,30.21,SW,219,0.0,0.0,16,0.00,CLR,OVC,0.00,WeatherDisplay:10.37,2013-01-06 22:20:00,
2013-01-06 16:25:00,25.3,-14.7,30.21,NNW,342,5.8,5.8,16,0.00,CLR,OVC,0.00,WeatherDisplay:10.37,2013-01-06 22:25:00,
2013-01-06 16:30:00,25.2,-14.8,30.21,WNW,299,2.3,0.0,16,0.00,CLR,OVC,0.00,WeatherDisplay:10.37,2013-01-06 22:30:00,
2013-01-06 16:35:00,25.0,-15.0,30.21,WNW,282,0.0,0.0,16,0.00,CLR,OVC,0.00,WeatherDisplay:10.37,2013-01-06 22:35:00,
2013-01-06 16:40:00,24.8,-13.9,30.21,WNW,283,0.0,0.0,17,0.00,CLR,OVC,0.00,WeatherDisplay:10.37,2013-01-06 22:40:00,
2013-01-06 16:45:00,24.4,-14.2,30.21,West,274,0.0,0.0,17,0.00,CLR,OVC,0.00,WeatherDisplay:10.37,2013-01-06 22:45:00,
2013-01-06 16:50:00,24.3,-14.4,30.21,West,264,0.0,0.0,17,0.00,CLR,OVC,0.00,WeatherDisplay:10.37,2013-01-06 22:50:00,
2013-01-06 16:55:00,24.1,-14.5,30.21,West,275,0.0,0.0,17,0.00,CLR,OVC,0.00,WeatherDisplay:10.37,2013-01-06 22:55:00,
2013-01-06 17:00:00,23.9,-12.5,30.21,West,277,0.0,0.0,19,0.00,CLR,OVC,0.00,WeatherDisplay:10.37,2013-01-06 23:00:00,
2013-01-06 17:05:00,23.7,-12.6,30.21,West,275,0.0,0.0,19,0.00,CLR,OVC,0.00,WeatherDisplay:10.37,2013-01-06 23:05:00,
2013-01-06 17:10:00,23.5,-12.8,30.21,West,271,0.0,0.0,19,0.00,CLR,OVC,0.00,WeatherDisplay:10.37,2013-01-06 23:10:00,
2013-01-06 17:15:00,23.2,-13.1,30.21,West,273,0.0,0.0,19,0.00,CLR,OVC,0.00,WeatherDisplay:10.37,2013-01-06 23:15:00,
2013-01-06 17:20:00,23.0,-12.2,30.21,West,269,0.0,0.0,20,0.00,CLR,OVC,0.00,WeatherDisplay:10.37,2013-01-06 23:20:00,
2013-01-06 17:25:00,22.8,-12.3,30.21,West,268,0.0,0.0,20,0.00,CLR,OVC,0.00,WeatherDisplay:10.37,2013-01-06 23:25:00,
2013-01-06 17:30:00,22.5,-12.7,30.21,West,269,0.0,0.0,20,0.00,CLR,OVC,0.00,WeatherDisplay:10.37,2013-01-06 23:30:00,
2013-01-06 17:35:00,22.3,-12.8,30.21,West,266,0.0,0.0,20,0.00,CLR,OVC,0.00,WeatherDisplay:10.37,2013-01-06 23:35:00,
2013-01-06 17:40:00,21.9,-13.1,30.21,NNW,332,0.0,0.0,20,0.00,CLR,OVC,0.00,WeatherDisplay:10.37,2013-01-06 23:40:00,
2013-01-06 17:45:00,21.9,-13.1,30.21,NW,313,0.0,0.0,20,0.00,CLR,OVC,0.00,WeatherDisplay:10.37,2013-01-06 23:45:00,
2013-01-06 17:50:00,21.9,-13.1,30.21,NW,311,0.0,0.0,20,0.00,CLR,OVC,0.00,WeatherDisplay:10.37,2013-01-06 23:50:00,
2013-01-06 17:55:00,21.9,-13.1,30.21,NW,312,0.0,0.0,20,0.00,CLR,OVC,0.00,WeatherDisplay:10.37,2013-01-06 23:55:00,
2013-01-06 18:00:00,21.9,-13.1,30.21,NW,311,0.0,0.0,20,0.00,CLR,OVC,0.00,WeatherDisplay:10.37,2013-01-07 00:00:00,
2013-01-06 18:05:00,21.7,-13.3,30.21,NW,311,0.0,0.0,20,0.00,CLR,OVC,0.00,WeatherDisplay:10.37,2013-01-07 00:05:00,
2013-01-06 18:10:00,21.6,-13.4,30.24,NW,310,0.0,0.0,20,0.00,CLR,OVC,0.00,WeatherDisplay:10.37,2013-01-07 00:10:00,
2013-01-06 18:15:00,21.2,-13.7,30.24,NW,311,0.0,0.0,20,0.00,CLR,OVC,0.00,WeatherDisplay:10.37,2013-01-07 00:15:00,
2013-01-06 18:20:00,21.2,-13.7,30.24,NW,311,0.0,0.0,20,0.00,CLR,OVC,0.00,WeatherDisplay:10.37,2013-01-07 00:20:00,
2013-01-06 18:25:00,20.8,-14.0,30.24,NW,312,0.0,0.0,20,0.00,CLR,OVC,0.00,WeatherDisplay:10.37,2013-01-07 00:25:00,
2013-01-06 18:30:00,20.7,-12.3,30.24,NW,312,0.0,0.0,22,0.00,CLR,OVC,0.00,WeatherDisplay:10.37,2013-01-07 00:30:00,
2013-01-06 18:35:00,20.5,-12.4,30.24,NW,312,0.0,0.0,22,0.00,CLR,OVC,0.00,WeatherDisplay:10.37,2013-01-07 00:35:00,
2013-01-06 18:40:00,20.3,-12.6,30.24,NW,313,0.0,0.0,22,0.00,CLR,OVC,0.00,WeatherDisplay:10.37,2013-01-07 00:40:00,
2013-01-06 18:45:00,20.5,-12.4,30.24,NW,313,0.0,0.0,22,0.00,CLR,OVC,0.00,WeatherDisplay:10.37,2013-01-07 00:45:00,
2013-01-06 18:50:00,20.5,-12.4,30.24,NW,310,0.0,0.0,22,0.00,CLR,OVC,0.00,WeatherDisplay:10.37,2013-01-07 00:50:00,
2013-01-06 18:55:00,20.5,-12.4,30.24,NW,310,0.0,0.0,22,0.00,CLR,OVC,0.00,WeatherDisplay:10.37,2013-01-07 00:55:00,
2013-01-06 19:00:00,20.5,-12.4,30.24,NW,311,0.0,0.0,22,0.00,CLR,OVC,0.00,WeatherDisplay:10.37,2013-01-07 01:00:00,
2013-01-06 19:05:00,20.5,-12.4,30.24,NW,311,0.0,0.0,22,0.00,CLR,OVC,0.00,WeatherDisplay:10.37,2013-01-07 01:05:00,
2013-01-06 19:10:00,20.3,-10.0,30.24,NW,311,0.0,0.0,25,0.00,CLR,OVC,0.00,WeatherDisplay:10.37,2013-01-07 01:10:00,
2013-01-06 19:15:00,20.3,-10.0,30.24,NW,311,0.0,0.0,25,0.00,CLR,OVC,0.00,WeatherDisplay:10.37,2013-01-07 01:15:00,
2013-01-06 19:20:00,20.1,-10.1,30.24,NW,310,0.0,0.0,25,0.00,CLR,OVC,0.00,WeatherDisplay:10.37,2013-01-07 01:20:00,
2013-01-06 19:25:00,20.1,-10.1,30.24,NW,310,0.0,0.0,25,0.00,CLR,OVC,0.00,WeatherDisplay:10.37,2013-01-07 01:25:00,
2013-01-06 19:30:00,20.1,-10.1,30.24,NW,310,0.0,0.0,25,0.00,CLR,OVC,0.00,WeatherDisplay:10.37,2013-01-07 01:30:00,
2013-01-06 19:35:00,19.9,-10.3,30.24,NW,313,0.0,0.0,25,0.00,CLR,OVC,0.00,WeatherDisplay:10.37,2013-01-07 01:35:00,
2013-01-06 19:40:00,19.8,-10.5,30.24,NW,312,0.0,0.0,25,0.00,CLR,OVC,0.00,WeatherDisplay:10.37,2013-01-07 01:40:00,
2013-01-06 19:45:00,19.6,-10.6,30.24,NW,310,0.0,0.0,25,0.00,CLR,OVC,0.00,WeatherDisplay:10.37,2013-01-07 01:45:00,
2013-01-06 19:50:00,19.4,-10.8,30.24,NW,311,0.0,0.0,25,0.00,CLR,OVC,0.00,WeatherDisplay:10.37,2013-01-07 01:50:00,
2013-01-06 19:55:00,19.4,-8.5,30.24,NW,312,0.0,0.0,28,0.00,CLR,OVC,0.00,WeatherDisplay:10.37,2013-01-07 01:55:00,
2013-01-06 20:00:00,19.4,-8.5,30.24,NW,312,0.0,0.0,28,0.00,CLR,OVC,0.00,WeatherDisplay:10.37,2013-01-07 02:00:00,
2013-01-06 20:05:00,19.2,-8.6,30.24,NW,310,0.0,0.0,28,0.00,CLR,OVC,0.00,WeatherDisplay:10.37,2013-01-07 02:05:00,
2013-01-06 20:10:00,19.2,-8.6,30.24,NW,311,0.0,0.0,28,0.00,CLR,OVC,0.00,WeatherDisplay:10.37,2013-01-07 02:10:00,
2013-01-06 20:15:00,19.2,-8.6,30.24,NW,310,0.0,0.0,28,0.00,CLR,OVC,0.00,WeatherDisplay:10.37,2013-01-07 02:15:00,
2013-01-06 20:20:00,19.2,-8.6,30.24,NW,312,0.0,0.0,28,0.00,CLR,OVC,0.00,WeatherDisplay:10.37,2013-01-07 02:20:00,
2013-01-06 20:25:00,19.0,-8.8,30.21,NW,312,0.0,0.0,28,0.00,CLR,OVC,0.00,WeatherDisplay:10.37,2013-01-07 02:25:00,
2013-01-06 20:30:00,18.9,-7.5,30.21,NW,314,0.0,0.0,30,0.00,CLR,OVC,0.00,WeatherDisplay:10.37,2013-01-07 02:30:00,
2013-01-06 20:35:00,18.7,-7.7,30.21,NW,312,0.0,0.0,30,0.00,CLR,OVC,0.00,WeatherDisplay:10.37,2013-01-07 02:35:00,
2013-01-06 20:40:00,18.5,-7.8,30.21,NW,312,0.0,0.0,30,0.00,CLR,OVC,0.00,WeatherDisplay:10.37,2013-01-07 02:40:00,
2013-01-06 20:45:00,18.5,-7.8,30.21,NW,311,0.0,0.0,30,0.00,CLR,OVC,0.00,WeatherDisplay:10.37,2013-01-07 02:45:00,
2013-01-06 20:50:00,18.3,-8.0,30.21,NW,310,0.0,0.0,30,0.00,CLR,OVC,0.00,WeatherDisplay:10.37,2013-01-07 02:50:00,
2013-01-06 20:55:00,18.1,-6.2,30.21,NW,313,0.0,0.0,33,0.00,CLR,OVC,0.00,WeatherDisplay:10.37,2013-01-07 02:55:00,
2013-01-06 21:01:00,18.0,-6.4,30.21,NW,310,0.0,0.0,33,0.00,CLR,OVC,0.00,WeatherDisplay:10.37,2013-01-07 03:01:00,
2013-01-06 21:06:00,17.8,-6.5,30.21,NW,310,0.0,0.0,33,0.00,CLR,OVC,0.00,WeatherDisplay:10.37,2013-01-07 03:06:00,
2013-01-06 21:11:00,18.0,-6.4,30.21,NW,310,0.0,0.0,33,0.00,CLR,OVC,0.00,WeatherDisplay:10.37,2013-01-07 03:11:00,
2013-01-06 21:16:00,18.1,-6.2,30.21,NW,311,0.0,0.0,33,0.00,CLR,OVC,0.00,WeatherDisplay:10.37,2013-01-07 03:16:00,
2013-01-06 21:21:00,18.1,-6.2,30.21,NW,313,0.0,0.0,33,0.00,CLR,OVC,0.00,WeatherDisplay:10.37,2013-01-07 03:21:00,
2013-01-06 21:26:00,18.1,-6.2,30.21,NW,311,0.0,0.0,33,0.00,CLR,OVC,0.00,WeatherDisplay:10.37,2013-01-07 03:26:00,
2013-01-06 21:31:00,18.1,-6.2,30.21,NW,312,0.0,0.0,33,0.00,CLR,OVC,0.00,WeatherDisplay:10.37,2013-01-07 03:31:00,
2013-01-06 21:36:00,18.1,-6.2,30.21,NW,309,0.0,0.0,33,0.00,CLR,OVC,0.00,WeatherDisplay:10.37,2013-01-07 03:36:00,
2013-01-06 21:41:00,18.0,-6.4,30.21,NW,310,0.0,0.0,33,0.00,CLR,OVC,0.00,WeatherDisplay:10.37,2013-01-07 03:41:00,
2013-01-06 21:46:00,18.0,-5.7,30.21,NW,312,0.0,0.0,34,0.00,CLR,OVC,0.00,WeatherDisplay:10.37,2013-01-07 03:46:00,
2013-01-06 21:51:00,18.0,-5.7,30.21,NW,311,0.0,0.0,34,0.00,CLR,OVC,0.00,WeatherDisplay:10.37,2013-01-07 03:51:00,
2013-01-06 21:56:00,17.8,-5.9,30.21,NW,311,0.0,0.0,34,0.00,CLR,OVC,0.00,WeatherDisplay:10.37,2013-01-07 03:56:00,
2013-01-06 22:01:00,17.8,-5.9,30.21,NW,310,0.0,0.0,34,0.00,CLR,OVC,0.00,WeatherDisplay:10.37,2013-01-07 04:01:00,
2013-01-06 22:06:00,17.6,-6.1,30.21,NW,313,0.0,0.0,34,0.00,CLR,OVC,0.00,WeatherDisplay:10.37,2013-01-07 04:06:00,
2013-01-06 22:11:00,17.4,-6.2,30.21,NW,310,0.0,0.0,34,0.00,CLR,OVC,0.00,WeatherDisplay:10.37,2013-01-07 04:11:00,
2013-01-06 22:16:00,17.4,-6.2,30.21,NW,313,0.0,0.0,34,0.00,CLR,OVC,0.00,WeatherDisplay:10.37,2013-01-07 04:16:00,
2013-01-06 22:21:00,17.2,-6.4,30.21,NW,310,0.0,0.0,34,0.00,CLR,OVC,0.00,WeatherDisplay:10.37,2013-01-07 04:21:00,
2013-01-06 22:26:00,17.1,-6.5,30.18,NW,312,0.0,0.0,34,0.00,CLR,OVC,0.00,WeatherDisplay:10.37,2013-01-07 04:26:00,
2013-01-06 22:31:00,17.1,-5.9,30.18,NW,309,0.0,0.0,35,0.00,CLR,OVC,0.00,WeatherDisplay:10.37,2013-01-07 04:31:00,
2013-01-06 22:36:00,17.2,-5.8,30.18,NW,311,0.0,0.0,35,0.00,CLR,OVC,0.00,WeatherDisplay:10.37,2013-01-07 04:36:00,
2013-01-06 22:41:00,17.4,-5.6,30.21,NW,314,0.0,0.0,35,0.00,CLR,OVC,0.00,WeatherDisplay:10.37,2013-01-07 04:41:00,
2013-01-06 22:46:00,17.4,-5.6,30.21,NW,311,0.0,0.0,35,0.00,CLR,OVC,0.00,WeatherDisplay:10.37,2013-01-07 04:46:00,
2013-01-06 22:51:00,17.2,-5.8,30.21,NW,312,0.0,0.0,35,0.00,CLR,OVC,0.00,WeatherDisplay:10.37,2013-01-07 04:51:00,
2013-01-06 22:56:00,17.2,-5.8,30.18,NW,309,0.0,0.0,35,0.00,CLR,OVC,0.00,WeatherDisplay:10.37,2013-01-07 04:56:00,
2013-01-06 23:00:00,17.1,-5.9,30.18,NW,310,0.0,0.0,35,0.00,CLR,OVC,0.00,WeatherDisplay:10.37,2013-01-07 05:00:00,
2013-01-06 23:01:00,17.1,-5.9,30.18,NW,312,0.0,0.0,35,0.00,CLR,OVC,0.00,WeatherDisplay:10.37,2013-01-07 05:01:00,
2013-01-06 23:06:00,17.1,-5.9,30.18,NW,312,0.0,0.0,35,0.00,CLR,OVC,0.00,WeatherDisplay:10.37,2013-01-07 05:06:00,
2013-01-06 23:11:00,17.1,-5.9,30.21,NW,314,0.0,0.0,35,0.00,CLR,OVC,0.00,WeatherDisplay:10.37,2013-01-07 05:11:00,
2013-01-06 23:16:00,17.2,-5.8,30.21,NW,310,0.0,0.0,35,0.00,CLR,OVC,0.00,WeatherDisplay:10.37,2013-01-07 05:16:00,
2013-01-06 23:21:00,17.4,-5.6,30.21,NW,311,0.0,0.0,35,0.00,CLR,OVC,0.00,WeatherDisplay:10.37,2013-01-07 05:21:00,
2013-01-06 23:26:00,17.2,-5.8,30.21,NW,311,0.0,0.0,35,0.00,CLR,OVC,0.00,WeatherDisplay:10.37,2013-01-07 05:26:00,
2013-01-06 23:30:00,17.2,-5.8,30.21,NW,313,0.0,0.0,35,0.00,CLR,OVC,0.00,WeatherDisplay:10.37,2013-01-07 05:30:00,
2013-01-06 23:35:00,17.1,-5.9,30.21,NW,310,0.0,0.0,35,0.00,CLR,OVC,0.00,WeatherDisplay:10.37,2013-01-07 05:35:00,
2013-01-06 23:40:00,17.1,-5.9,30.21,NW,312,0.0,0.0,35,0.00,CLR,OVC,0.00,WeatherDisplay:10.37,2013-01-07 05:40:00,
2013-01-06 23:45:00,16.9,-5.5,30.21,NW,313,0.0,0.0,36,0.00,CLR,OVC,0.00,WeatherDisplay:10.37,2013-01-07 05:45:00,
2013-01-06 23:50:00,16.9,-5.5,30.21,NW,310,0.0,0.0,36,0.00,CLR,OVC,0.00,WeatherDisplay:10.37,2013-01-07 05:50:00,
2013-01-06 23:55:00,16.9,-5.5,30.21,NW,310,0.0,0.0,36,0.00,CLR,OVC,0.00,WeatherDisplay:10.37,2013-01-07 05:55:00,